Tracking 19564 objects as of 19-Mar-2019
HD Live streaming from Space Station
objects crossing your sky now

GALAXY 3

Track GALAXY 3 now!
GALAXY 3 is classified as:


NORAD ID: 15308
Int'l Code: 1984-101A
Perigee: 35,864.8 km
Apogee: 35,968.0 km
Inclination: 15.3 °
Period: 1,442.4 minutes
Semi major axis: 42287 km
RCS: 3.7869 m2 (large)
Launch date: September 21, 1984
Source: United States (US)
Launch site: AIR FORCE EASTERN TEST RANGE (AFETR)
aabbcc
Your satellite tracking list
Your tracking list is empty




NASA's NSSDC Master Catalog

Two Line Element Set (TLE):
1 15308U 84101A   19077.47549429 +.00000082 +00000-0 +00000-0 0  9999
2 15308 015.2519 007.0963 0012204 332.4396 224.2794 00.99835964020045
Source of the keplerian elements: AFSPC